{"data":{"norad_id":66672,"intl_designator":"2025-276G","name":"BRO-17","alt_names":[],"object_type":"PAYLOAD","status":"ACTIVE","operator":null,"country":"FR","launch_date":"2025-11-28","launch_site_code":"AFWTR","launch_vehicle":null,"mission":null,"orbit_class":"UNKNOWN","rcs_meters":null,"size_class":null,"mass_kg":null,"dimensions":null,"purposes":[],"wikipedia_slug":null,"has_3d_model":false,"image_url":null,"decayed_at":null,"tle_current":{"epoch":"2026-05-25T04:12:57.949344Z","epoch_age_seconds":50149,"freshness":"FRESH","line1":"1 66672U 25276G   26145.17567071  .00002663  00000+0  13490-3 0  9997","line2":"2 66672  97.4197 218.7395 0008459  84.6372 275.5826 15.17814493 26902","mean_motion":15.17814493,"eccentricity":0.0008459,"inclination_deg":97.4197,"raan_deg":218.7395,"arg_perigee_deg":84.6372,"mean_anomaly_deg":275.5826,"bstar":0.0001349,"rev_number":2690,"period_min":94.873254053188,"perigee_km":506.61846117081,"apogee_km":518.27595153111,"semimajor_km":6890.584206351,"source":"CELESTRAK","updated_at":"2026-05-25T13:38:06.385570Z"}}}